This demonstration page uses our WeatherBlox Daily Observations layout. Learn more.

Left ArrowRight Arrow

Hourly Observations for April 7, 2021

Temp ( °F °C ) Dew Point ( °F °C ) Humidity (%) Winds ( mph kmh ) Pressure ( in mb ) Visibility ( mi km ) Precip ( " mm )
12:16 am 00:16 Cloudy 41 5 37 3 87 87 NNW 23 37 29.73 1007 10 16 0.00 0.00
12:56 am 00:56 Cloudy 41 5 36 2.2 82 82 N 22 35 29.67 1005 10 16 0.00 0.00
1:56 am 01:56 Cloudy 41 5 37 2.8 86 86 NNW 20 31 29.68 1005 9 14 0.00 0.00
2:56 am 02:56 Cloudy 40 4.4 37 2.8 89 89 NNW 17 28 29.69 1006 10 16 0.00 0.00
3:28 am 03:28 Cloudy 39 4 37 3 93 93 NNW 23 37 29.75 1007 8 13 0.00 0.00
3:56 am 03:56 Cloudy 39 3.9 37 2.8 93 93 NNW 26 43 29.66 1004 9 14 0.00 0.00
4:56 am 04:56 Cloudy 39 3.9 35 1.7 86 86 NNW 23 37 29.67 1005 10 16 0.00 0.00
5:56 am 05:56 Cloudy 39 3.9 35 1.7 86 86 NNW 25 41 29.65 1004 10 16 0.00 0.00
6:56 am 06:56 Cloudy 38 3.3 35 1.7 89 89 N 26 43 29.67 1005 10 16 0.00 0.00
7:56 am 07:56 Cloudy 39 3.9 35 1.7 86 86 NNW 23 37 29.69 1005 10 16 0.00 0.00
8:39 am 08:39 Cloudy 39 4 36 2 87 87 NNW 21 33 29.79 1009 10 16 0.00 0.00
8:56 am 08:56 Cloudy 40 4.4 35 1.7 83 83 NNW 26 43 29.71 1006 10 16 0.00 0.00
9:56 am 09:56 Cloudy 40 4.4 34 1.1 79 79 N 25 41 29.76 1008 10 16 0.00 0.00
10:56 am 10:56 Cloudy 40 4.4 35 1.7 83 83 NNW 26 43 29.75 1007 10 16 0.00 0.00
11:09 am 11:09 Cloudy 41 5 36 2 81 81 N 24 39 29.79 1009 10 16 0.00 0.00
11:56 am 11:56 Cloudy with Light Rain 41 5 36 2.2 82 82 NNW 29 46 29.75 1007 9 14 0.02 0.51
12:40 pm 12:40 Cloudy with Light Rain 39 4 37 3 93 93 NNW 21 33 29.76 1008 4 6 0.07 1.78
12:56 pm 12:56 Cloudy with Light Rain 40 4.4 38 3.3 93 93 NNW 23 37 29.73 1007 10 16 0.09 2.29
1:56 pm 13:56 Cloudy with Light Rain 40 4.4 38 3.3 93 93 NNW 28 44 29.72 1007 10 16 0.02 0.51
2:32 pm 14:32 Cloudy 41 5 37 3 87 87 NNW 25 41 29.76 1008 10 16 0.00 0.00
2:40 pm 14:40 Cloudy 41 5 37 3 87 87 NNW 26 43 29.75 1007 10 16 0.00 0.00
2:56 pm 14:56 Cloudy 41 5 37 2.8 86 86 NNW 24 39 29.72 1007 10 16 0.00 0.00
3:56 pm 15:56 Cloudy 42 5.6 37 2.8 82 82 NNW 31 50 29.71 1006 10 16 0.00 0.00
4:20 pm 16:20 Cloudy 43 6 36 2 76 76 N 29 46 29.74 1007 10 16 0.00 0.00
4:56 pm 16:56 Cloudy 42 5.6 37 2.8 82 82 NNW 23 37 29.72 1006 10 16 0.00 0.00
5:56 pm 17:56 Cloudy 43 6.1 37 2.8 80 80 NNW 28 44 29.72 1007 10 16 0.00 0.00
6:56 pm 18:56 Cloudy 43 6.1 36 2.2 76 76 NNW 26 43 29.73 1007 10 16 0.00 0.00
7:56 pm 19:56 Cloudy 44 6.7 36 2.2 73 73 NNW 25 41 29.73 1007 10 16 0.00 0.00
8:13 pm 20:13 Cloudy 45 7 36 2 71 71 NNW 21 33 29.75 1007 10 16 0.00 0.00
8:56 pm 20:56 Cloudy with Light Rain 44 6.7 35 1.7 71 71 NNW 22 35 29.74 1007 10 16 0.00 0.00
9:20 pm 21:20 Cloudy 43 6 36 2 76 76 NNW 22 35 29.76 1008 10 16 0.00 0.00
9:56 pm 21:56 Cloudy 43 6.1 36 2.2 76 76 NNW 21 33 29.75 1008 10 16 0.00 0.00
10:21 pm 22:21 Cloudy 43 6 36 2 76 76 NNW 17 28 29.78 1008 10 16 0.00 0.00
10:56 pm 22:56 Cloudy 43 6.1 36 2.2 76 76 NNW 21 33 29.75 1007 10 16 0.00 0.00
11:12 pm 23:12 Cloudy 43 6 36 2 76 76 NNW 22 35 29.77 1008 10 16 0.00 0.00
11:56 pm 23:56 Cloudy 44 6.7 37 2.8 76 76 NNW 21 33 29.72 1007 10 16 0.00 0.00

Powered by AerisWeather